Date String (YYYY-MM-DD hh:mm:ss) UTC,Instrument flags,Ambient pressure (hPa),Sample flow (lpm),Bypass flow (lpm),Sample temperature (°C),Ambient temperature (°C),ASC tube jacket temperature (°C),LED temperature (°C),Box temperature (°C),Sample RH (%),Span deviation,Mass concentration (μg/m³),Mass concentration (μg/m³),Mass concentration (μg/m³)
DateTimeUTC,F1_M11,P_M11,Q1_M11,Q2_M11,T1_M11,T2_M11,T3_M11,T4_M11,T5_M11,U1_M11,ZSPAN_M11,X0_M11,X2_M11,X1_M11
2023-02-06 09:00:00,,0814.2,4.95,0.00,22.3,20.7,00.0,31.3,23.9,12.6,0000.0,0008.60,0003.99,0003.13
2023-02-06 09:01:00,,0813.9,5.03,0.00,22.3,20.6,00.0,31.2,23.9,12.6,0000.0,0008.51,0003.96,0003.10
2023-02-06 09:02:00,,0813.9,4.95,0.00,22.2,20.6,00.0,31.2,23.9,12.4,0000.0,0008.55,0003.97,0003.10
2023-02-06 09:03:00,,0813.8,5.02,0.00,22.2,20.5,00.0,31.2,23.8,12.5,0000.0,0008.50,0003.98,0003.09
2023-02-06 09:04:00,,0813.9,5.01,0.00,22.2,20.5,00.0,31.2,23.7,12.5,0000.0,0008.44,0003.95,0003.08
2023-02-06 09:05:00,,0813.9,4.96,0.00,22.2,20.7,00.0,31.2,23.8,12.5,0000.0,0008.40,0003.91,0003.06
2023-02-06 09:06:00,,0813.9,5.04,0.00,22.2,21.6,00.0,31.1,24.1,12.4,0000.0,0008.28,0003.86,0003.05
2023-02-06 09:07:00,,0813.9,4.99,0.00,22.4,22.7,00.0,31.1,24.4,12.5,0000.0,0007.88,0003.90,0003.06
2023-02-06 09:08:00,,0813.9,4.99,0.00,22.5,23.1,00.0,31.2,24.6,12.5,0000.0,0008.03,0003.92,0003.07
2023-02-06 09:09:00,,0813.9,5.01,0.00,22.5,22.5,00.0,31.2,24.5,12.3,0000.0,0007.94,0003.91,0003.07
2023-02-06 09:10:00,,0813.9,5.01,0.00,22.5,22.1,00.0,31.3,24.4,12.2,0000.0,0007.85,0003.88,0003.06
2023-02-06 09:11:00,,0814.0,5.04,0.00,22.5,21.8,00.0,31.3,24.3,12.2,0000.0,0007.83,0003.88,0003.06
2023-02-06 09:12:00,,0814.1,4.96,0.00,22.5,21.5,00.0,31.3,24.2,12.0,0000.0,0008.03,0003.90,0003.10
2023-02-06 09:13:00,,0813.8,5.02,0.00,22.5,21.4,00.0,31.3,24.2,12.1,0000.0,0008.32,0003.89,0003.11
2023-02-06 09:14:00,,0813.9,5.03,0.00,22.5,21.2,00.0,31.3,24.2,12.2,0000.0,0008.46,0003.93,0003.12
2023-02-06 09:15:00,,0813.8,4.96,0.00,22.5,21.1,00.0,31.3,24.1,12.2,0000.0,0008.57,0003.96,0003.12
2023-02-06 09:16:00,,0813.8,5.03,0.00,22.4,21.0,00.0,31.3,24.1,12.0,0000.0,0008.51,0003.95,0003.12
2023-02-06 09:17:00,,0813.9,5.02,0.00,22.4,20.9,00.0,31.3,24.0,12.0,0000.0,0008.54,0003.98,0003.13
2023-02-06 09:18:00,,0813.8,4.96,0.00,22.4,20.8,00.0,31.3,24.0,12.1,0000.0,0008.35,0003.96,0003.13
2023-02-06 09:19:00,,0813.9,4.99,0.00,22.3,20.8,00.0,31.3,24.0,12.1,0000.0,0008.02,0003.97,0003.14
2023-02-06 09:20:00,,0814.0,5.03,0.00,22.3,20.7,00.0,31.3,23.9,12.1,0000.0,0008.24,0004.04,0003.14
2023-02-06 09:21:00,,0813.8,5.00,0.00,22.3,20.7,00.0,31.3,23.9,12.0,0000.0,0008.34,0004.05,0003.14
2023-02-06 09:22:00,,0813.8,4.96,0.00,22.2,20.6,00.0,31.3,23.8,11.9,0000.0,0008.43,0004.04,0003.15
2023-02-06 09:23:00,,0813.9,5.02,0.00,22.2,20.6,00.0,31.2,23.7,12.0,0000.0,0008.41,0004.05,0003.14
2023-02-06 09:24:00,,0814.2,5.02,0.00,22.2,20.5,00.0,31.2,23.7,12.1,0000.0,0008.13,0004.10,0003.14
2023-02-06 09:25:00,,0814.0,4.97,0.00,22.2,20.5,00.0,31.2,23.8,12.3,0000.0,0008.26,0004.06,0003.14
2023-02-06 09:26:00,,0814.0,5.00,0.00,22.2,21.4,00.0,31.1,24.0,12.3,0000.0,0009.38,0004.08,0003.15
2023-02-06 09:27:00,,0813.9,4.98,0.00,22.3,22.5,00.0,31.1,24.3,12.2,0000.0,0009.45,0004.12,0003.16
2023-02-06 09:28:00,,0814.2,5.02,0.00,22.5,23.1,00.0,31.2,24.5,12.2,0000.0,0009.43,0004.12,0003.16
2023-02-06 09:29:00,,0814.0,4.97,0.00,22.5,22.6,00.0,31.2,24.5,12.2,0000.0,0009.49,0004.11,0003.15
2023-02-06 09:30:00,,0813.9,5.01,0.00,22.5,22.1,00.0,31.3,24.4,12.3,0000.0,0009.50,0004.09,0003.14
2023-02-06 09:31:00,,0813.8,5.00,0.00,22.5,21.8,00.0,31.3,24.3,12.2,0000.0,0009.33,0004.04,0003.15
2023-02-06 09:32:00,,0813.8,4.98,0.00,22.5,21.6,00.0,31.3,24.2,12.0,0000.0,0009.31,0004.06,0003.14
2023-02-06 09:33:00,,0813.9,5.02,0.00,22.5,21.4,00.0,31.3,24.2,12.1,0000.0,0009.35,0004.07,0003.14
2023-02-06 09:34:00,,0813.9,5.00,0.00,22.5,21.2,00.0,31.3,24.2,12.0,0000.0,0009.72,0004.05,0003.13
2023-02-06 09:35:00,,0813.9,4.96,0.00,22.4,21.1,00.0,31.3,24.1,12.1,0000.0,0010.26,0004.02,0003.12
2023-02-06 09:36:00,,0813.9,5.03,0.00,22.4,21.0,00.0,31.3,24.1,12.2,0000.0,0010.15,0004.03,0003.11
2023-02-06 09:37:00,,0813.9,4.98,0.00,22.4,20.9,00.0,31.3,24.0,12.2,0000.0,0008.78,0003.96,0003.07
2023-02-06 09:38:00,,0813.8,4.99,0.00,22.4,20.8,00.0,31.3,24.0,12.0,0000.0,0008.67,0003.90,0003.04
2023-02-06 09:39:00,,0813.9,5.03,0.00,22.3,20.8,00.0,31.3,24.0,12.2,0000.0,0008.55,0003.86,0003.02
2023-02-06 09:40:00,,0813.9,4.95,0.00,22.3,20.8,00.0,31.3,23.9,12.2,0000.0,0008.50,0003.85,0003.01
2023-02-06 09:41:00,,0813.9,5.01,0.00,22.3,20.7,00.0,31.3,23.9,12.4,0000.0,0008.54,0003.84,0003.00
2023-02-06 09:42:00,,0813.8,5.02,0.00,22.3,20.7,00.0,31.3,23.9,12.4,0000.0,0008.65,0003.84,0002.97
2023-02-06 09:43:00,,0813.9,5.01,0.00,22.3,20.7,00.0,31.2,23.9,12.3,0000.0,0008.64,0003.81,0002.97
2023-02-06 09:44:00,,0813.8,4.98,0.00,22.2,20.7,00.0,31.2,23.9,12.3,0000.0,0008.99,0003.82,0002.96
2023-02-06 09:45:00,,0813.8,4.98,0.00,22.2,20.7,00.0,31.2,23.9,12.4,0000.0,0008.59,0003.80,0002.95
2023-02-06 09:46:00,,0813.9,4.98,0.00,22.2,20.7,00.0,31.2,23.9,12.4,0000.0,0008.02,0003.79,0002.94
2023-02-06 09:47:00,,0813.8,5.02,0.00,22.2,20.7,00.0,31.2,23.9,12.4,0000.0,0008.10,0003.79,0002.93
2023-02-06 09:48:00,,0813.9,5.01,0.00,22.2,20.6,00.0,31.2,23.9,12.3,0000.0,0008.17,0003.81,0002.93
2023-02-06 09:49:00,,0813.8,5.01,0.00,22.2,20.6,00.0,31.2,23.8,12.4,0000.0,0008.23,0003.84,0002.93
2023-02-06 09:50:00,,0813.9,5.00,0.00,22.2,20.6,00.0,31.1,23.8,12.4,0000.0,0008.33,0003.88,0002.95
2023-02-06 09:51:00,,0813.9,4.99,0.00,22.1,20.5,00.0,31.1,23.7,12.5,0000.0,0008.38,0003.89,0002.94
2023-02-06 09:52:00,,0813.9,4.99,0.00,22.1,20.7,00.0,31.1,23.8,12.6,0000.0,0008.57,0003.88,0002.94
2023-02-06 09:53:00,,0813.9,4.98,0.00,22.2,21.8,00.0,31.0,24.1,12.7,0000.0,0009.17,0003.87,0002.92
2023-02-06 09:54:00,,0813.9,5.01,0.00,22.3,22.9,00.0,31.1,24.4,12.4,0000.0,0009.05,0003.86,0002.91
2023-02-06 09:55:00,,0813.8,5.01,0.00,22.5,23.0,00.0,31.1,24.5,12.4,0000.0,0009.20,0003.85,0002.89
2023-02-06 09:56:00,,0813.9,5.00,0.00,22.5,22.5,00.0,31.2,24.4,12.4,0000.0,0009.23,0003.84,0002.90
2023-02-06 09:57:00,,0813.8,5.01,0.00,22.5,22.1,00.0,31.2,24.3,12.4,0000.0,0009.14,0003.82,0002.91
2023-02-06 09:58:00,,0814.0,5.01,0.00,22.5,21.8,00.0,31.2,24.3,12.4,0000.0,0008.99,0003.81,0002.91
2023-02-06 09:59:00,,0813.9,5.01,0.00,22.5,21.6,00.0,31.3,24.3,12.1,0000.0,0009.07,0003.81,0002.93
